Regional Weather Roundup
Issued by NWS

Home | Current Version | Previous Version | Text Only | Print | Product List | Glossary Off
Versions: 1 2 3 4 5 6 7 8 9 10 11 12 13 14 15 16 17 18 19 20 21 22 23 24 25 26 27 28 29 30 31 32 33 34 35 36 37 38 39 40 41 42 43 44 45 46 47 48 49 50

000
ASUS43 KLOT 182210
RWRIL

ILLINOIS REGIONAL WEATHER ROUNDUP
NATIONAL WEATHER SERVICE CHICAGO/ROMEOVILLE IL
500 PM CDT THU SEP 18 2014

NOTE: "FAIR" INDICATES FEW OR NO CLOUDS BELOW 12,000 FEET WITH NO
SIGNIFICANT WEATHER AND/OR OBSTRUCTIONS TO VISIBILITY.

* THESE STATIONS ARE NOT UNDER NWS QUALITY CONTROL. THEY ALSO MAY NOT
  REPORT WEATHER SUCH AS PRECIPITATION OR FOG.

ILZ001-002-007-009-015-016-024-182300-
NORTHWEST ILLINOIS

CITY           SKY/WX    TMP DP  RH WIND       PRES   REMARKS
MOLINE         SUNNY     72  52  49 E14       30.06S
STERLING*      MOSUNNY   72  54  53 E10       30.08S
SAVANNA*       SUNNY     72  49  44 E7        30.08S
$$

ILZ003-004-008-010-011-017-018-182300-
NORTH CENTRAL ILLINOIS

CITY           SKY/WX    TMP DP  RH WIND       PRES   REMARKS
ROCKFORD       MOSUNNY   70  52  52 E10       30.11F
FREEPORT*      MOSUNNY   68  53  58 E7        30.12F
ROCHELLE*      PTSUNNY   71  51  49 E7        30.10S
DE KALB*       MOSUNNY   66  53  61 NE7       30.11S
PERU*          SUNNY     73  49  42 E8        30.08F
$$

ILZ005-006-012>014-019>023-182300-
NORTHEAST ILLINOIS

CITY           SKY/WX    TMP DP  RH WIND       PRES   REMARKS
CHICAGO-OHARE  MOSUNNY   68  54  60 NE12      30.12S
CHICAGO-MIDWAY MOSUNNY   67  55  65 NE10      30.11S
AURORA         MOSUNNY   69  53  56 NE9       30.10S
LANSING*       SUNNY     65  55  70 NE10      30.11S
JOLIET*        SUNNY     69  48  46 NE8       30.10S
WAUKEGAN       CLOUDY    58  52  80 N8        30.13S
DUPAGE AIRPORT SUNNY     68  53  58 NE10      30.10F
KANKAKEE*      SUNNY     71  50  47 E9        30.08F
WHEELING       SUNNY     63  54  72 NE10      30.14S
MORRIS*        SUNNY     72  50  46 E5        30.08S
ROMEOVILLE*    SUNNY     68  51  53 E12       30.10S
NORTHERLY ISL    N/A     62  55  77 MISG        N/A
$$

LMZ740>746-182300-
SOUTHERN LAKE MICHIGAN

STATION/POSITION SKY/WX   TEMP    WIND        PRES    VSBY  WAVE
                          AIR SEA DIR/SP/G                  HT/PER
                          (F)     (DEG/KT/KT) (MB)    (MI)  (FT/S)
SOUTHERN BUOY              61 65   20/ 12/ 12 1020.3F         2/ 6
WAUKEGAN HARBOR            58      20/ 13/ 15   N/A
HARRISON CRIB              60      10/ 12/ 13   N/A
BURNHAM HARBOR             62     350/  9/ 12   N/A
CALUMET HARBOR             62     350/ 10/ 12 1018.6F
MICHIGAN CITY              63     360/ 13/ 15   N/A
MICHIGAN CITY 6N           63 65   20/ 10/ 14   N/A           3/ 2
ST. JOSEPH                 63 66   10/ 12/ 14   N/A           2/ 2
$$

ILZ025>027-034>036-040-047-049-050-058-095>099-182300-
WEST-CENTRAL ILLINOIS

CITY           SKY/WX    TMP DP  RH WIND       PRES   REMARKS
QUINCY         SUNNY     73  49  42 E8        30.03F
GALESBURG*     SUNNY     75  53  45 E6        30.06S
MACOMB*        MOSUNNY   74  52  45 E10       30.07S
JACKSONVILLE*  MOSUNNY   77  52  41 E7        30.04F
PITTSFIELD*    MOSUNNY   75  53  45 CALM      30.04F
$$

ILZ028>032-037-038-041>044-048-051>054-059>061-182300-
CENTRAL ILLINOIS

CITY           SKY/WX    TMP DP  RH WIND       PRES   REMARKS
PONTIAC        SUNNY     75  45  33 E8        30.07S
DECATUR        SUNNY     73  49  42 E8        30.05S
PEORIA         SUNNY     74  48  39 E6        30.06F
LACON*         SUNNY     72  47  40 E5        30.06F
LINCOLN*       SUNNY     75  46  34 E6        30.02S
SPRINGFIELD    SUNNY     76  52  43 E9        30.04S
TAYLORVILLE    SUNNY     73  48  40 E7        30.03F
$$

ILZ033-039-045-046-055>057-062-063-182300-
EAST-CENTRAL ILLINOIS

CITY           SKY/WX    TMP DP  RH WIND       PRES   REMARKS
CHAMPAIGN      SUNNY     72  44  36 E9        30.06S
DANVILLE*      SUNNY     73  45  37 NE9       30.04S
RANTOUL*       SUNNY     75  37  25 E9        30.07S
MATTOON        SUNNY     72  46  39 E6        30.04S
PARIS*         SUNNY     73  45  35 E6        30.06S
$$

ILZ079-100>102-182300-
SOUTHWEST ILLINOIS

CITY           SKY/WX    TMP DP  RH WIND       PRES   REMARKS
ALTON          SUNNY     73  48  40 E12       30.03S
BELLEVILLE     SUNNY     74  54  48 NE9       30.01S
CAHOKIA*       SUNNY     75  53  46 E7        30.01S
SPARTA*        SUNNY     74  55  51 E7        30.01F
$$

ILZ064>066-069>071-074>076-080>082-084>086-088>090-092>094-182300-
SOUTH-CENTRAL ILLINOIS

CITY           SKY/WX    TMP DP  RH WIND       PRES   REMARKS
CARBONDALE     SUNNY     73  56  54 E5        30.00S
CAIRO*         PTSUNNY   76  60  57 NE7       29.97F
EFFINGHAM*     SUNNY     74  45  35 E3        30.04S
MARION         SUNNY     75  55  50 E9        30.01S
MT. VERNON     SUNNY     73  54  49 NE12      30.02F
CENTRALIA*     SUNNY     73  51  46 E8        30.02F
SALEM*         SUNNY     75  56  52 E6        30.02F
METROPOLIS*    PTSUNNY   76  59  56 E6        29.97F
$$

ILZ067-068-072-073-078-083-087-091-182300-
SOUTHEAST ILLINOIS

CITY           SKY/WX    TMP DP  RH WIND       PRES   REMARKS
LAWRENCEVILLE  MOSUNNY   74  52  46 NE7       30.03F
FLORA*         SUNNY     74  51  44 NE7       30.03F
FAIRFIELD*     SUNNY    N/A N/A N/A E6        30.01F
HARRISBURG*    SUNNY     74  52  45 NE6       30.01S
ROBINSON*      SUNNY     73  56  54 E5        30.05S
CARMI*         SUNNY     77  54  44 NE8       30.00F
$$

ABBREVIATIONS USED IN REMARKS
   TC - TEMPERATURE IN CELSIUS
  WCI - WIND CHILL INDEX
   HX - HEAT INDEX
  VSB - VISIBILITY
$$




USA.gov is the U.S. government's official web portal to all federal, state and local government web resources and services.